星链-31878 (STARLINK-31878 )

导读

STARLINK-31878是美国SpaceX星链星座中的一颗卫星,于2024年6月8日发射。星链项目旨在构建全球卫星互联网星座,为地面偏远地区等提供高速互联网接入服务。该卫星加入星座后,进一步扩充了星链网络的覆盖能力与服务容量,推动低轨卫星通信网络的部署进程。

基本信息
目录编号:
60031
目录名称:
STARLINK-31878
国际标识:
2024-111R
轨道中心:
EARTH
卫星名称:
星链-31878
卫星全名:
星链-31878 (STARLINK-31878 )
卫星状态:
在轨 (已飞行825 天)
发射日期:
2024-06-08 UTC
国别 :
美国 (US)
星等 :
--
轨道信息
数据来源 国际轨道数据 AOE轨道数据
星历时间 2026-09-11T07:09:01+0800
5小时前
查看轨道信息
2026-09-09T23:00:00+0800
1天前
查看轨道信息
半长轴 6840.889km 6840.881km
偏心率 0.0001212 0.0001179
轨道倾角 53.160° 53.159°
近地点辐角 70.006° 66.279°
升交点赤经 239.989° 246.255°
平近点角 290.108° 90.052°
近地点 461.922km 461.937km
远地点 463.582km 463.551km
周期 93.849分钟 93.849分钟
每日圈数 15.343838 15.343863
详细信息
固有亮度:
5
最大亮度:
1.5
卫星平台:
Starlink v2.0 mini
覆盖范围:
全球
运营商:
太空探索技术公司
运营商所在国:
美国
制造商(研发单位):
太空探索技术公司
制造商所在国:
美国
使用方式:
暂无
卫星简介
星链(Starlink)计划是由太空探索技术公司(SpaceX)提出的一个巨型低轨卫星互联网星座项目,计划在2019年至2024年间在太空搭建由约1.2万颗卫星组成的“星链”网络,其中1584颗将部署在地球上空550千米处的近地轨道,并从2020年开始工作。该卫星仍在工作。
2D轨道图
3D轨道图
轨道高度分析图
轨道倾角分析图
轨道综合分析图
查看轨道综合分析图
交会数据列表
事件ID 空间交会对象 最接近时刻(TCA) 交会距离 交会风险概率(CRP) 交会风险指数(CRI) 操作
CDM_260911-115906-003106-924621
2026-09-11T
11:59:25+0000
0.218 km
中距离
4.783998E-4 高风险 0.89
CDM_260912-164305-306406-003121
2026-09-12T
16:43:54+0000
0.353 km
远距离
3.978093E-4 高风险 0.87
CDM_260913-114106-003106-855321
2026-09-13T
11:41:52+0000
0.550 km
远距离
5.299324E-5 中风险 0.69
CDM_260911-155306-003106-924621
2026-09-11T
15:53:54+0000
1.389 km
极远距离
3.793858E-6 低风险 0.47
CDM_260911-143504-299206-003125
2026-09-11T
14:35:54+0000
2.221 km
极远距离
2.19824E-6 低风险 0.42
CDM_260906-012706-003106-321721
OBJECT H (63217)
2026-09-06T
01:27:55+0000
2.539 km
极远距离
1.580211E-6 低风险 0.39
CDM_260913-092106-003106-855321
2026-09-13T
09:21:11+0000
1.865 km
极远距离
1.12144E-6 低风险 0.36
CDM_260910-211105-189606-003121
2026-09-10T
21:11:17+0000
2.860 km
极远距离
3.20103E-7 极低风险 0.25
与全量物体交会距离演化趋势
与全量物体交会风险概率演化趋势